Flag for Brazil Weather past 2 weeks in Niterói, Rio de Janeiro, Brazil

Now
68 °F

Broken clouds.


Feels Like: 68 °F
Forecast: 64 / 69 °F
Wind: 2 mph from Southeast

Location: Rio De Janeiro Airport

Current Time: Aug 28, 2014 at 10:40:13 AM

Latest Report: Aug 28, 2014 at 10:00 AM


Visibility: 3 mi

Pressure: 30.12 "Hg

Humidity: 78%

Dew point: 61 °F

Location of NiteróiLocation

Historic Weather in Niterói — Graph

°F

Niterói temperature yesterday

Maximum temperature yesterday: 73 °F (at 7:00 AM)
Minimum temperature yesterday: 70 °F (at 2:00 PM)
Average temperature yesterday: 72 °F

Past Weeks' High & Low Weather Summary

 TemperatureHumidityPressure
High90 °F (Aug 26, 11:00 AM)100% (Aug 14, 12:00 PM)30.39 "Hg (Aug 14, 12:00 PM)
Low61 °F (Aug 14, 6:00 AM)29% (Aug 25, 1:00 PM)29.83 "Hg (Aug 25, 3:00 PM)
Average73 °F75%30.11 "Hg
* Reported Aug 13 9:00 AM — Aug 28 9:00 AM, Niterói, Weather by CustomWeather, © 2014

Note: Actual official high and low records may vary slightly from our data, if they occured in-between our weather recording intervals... More about our weather records

Advertising

Niterói weather history for previous 24 hours

 ConditionsComfort  
Time TempWeatherWind HumidityBarometerVisibility
9:00 AM
Aug 28
68 °FFog.7 mph83%30.12 "Hg3 mi
8:00 AM68 °FBroken clouds.7 mph83%30.09 "Hg4 mi
7:00 AM68 °FBroken clouds.2 mph78%30.09 "Hg4 mi
6:07 AM66 °FThunderstorms. Fog.5 mph88%30.07 "Hg2 mi
6:00 AM66 °FBroken clouds.6 mph88%30.07 "HgN/A
11:00 PM
Aug 27
70 °FOvercast.7 mph69%30.07 "HgN/A
10:00 PM70 °FOvercast.9 mph69%30.07 "HgN/A
9:00 PM70 °FOvercast.9 mph69%30.07 "HgN/A
8:00 PM70 °FOvercast.10 mph69%30.04 "HgN/A
7:00 PM70 °FMostly cloudy.9 mph69%30.04 "HgN/A
6:00 PM70 °FMostly cloudy.12 mph73%30.01 "HgN/A
5:00 PM72 °FMostly cloudy.10 mph73%30.01 "HgN/A
4:00 PM72 °FOvercast.8 mph73%30.01 "HgN/A
3:00 PM72 °FOvercast.13 mph69%29.98 "HgN/A
2:00 PM70 °FCloudy.12 mph83%29.98 "Hg5 mi
1:00 PM72 °FMostly cloudy.13 mph78%29.98 "Hg5 mi
12:00 PM73 °FMostly cloudy.9 mph78%30.01 "Hg6 mi
11:00 AM73 °FMostly cloudy.10 mph83%30.01 "Hg6 mi
10:00 AM73 °FMostly cloudy.9 mph83%30.04 "Hg6 mi
Weather by CustomWeather, © 2014

See weather overviewHow to use our weather pages